Location: Casco Volunteer Fire Department
(44.5576°N, 87.6146°W)
Time: 04:50:27
(UTC+00:00)

GRACE-FO 1 - Visible Passes

Search period start: 21 April 2026 00:00
Search period end: 01 May 2026 00:00
Orbit: 446 x 459 km, 89.0° (Epoch: 20 April)

Date Brightness Start Highest point End Pass type
(mag) Time Alt. Az. Time Alt. Az. Time Alt. Az.
21 Apr 7.9 05:47:06 11° N 05:47:06 11° N 05:47:12 10° N visible
22 Apr 7.8 05:12:33 10° NNE 05:12:33 10° NNE 05:12:35 10° NNE visible
24 Apr 7.7 05:37:07 13° N 05:37:07 13° N 05:37:30 10° N visible
25 Apr 7.6 05:02:33 13° NNE 05:02:33 13° NNE 05:02:56 10° NNE visible
26 Apr 7.7 06:01:39 11° NNW 06:01:39 11° NNW 06:01:48 10° NNW visible
27 Apr 7.5 05:27:04 15° N 05:27:04 15° N 05:27:46 10° N visible
28 Apr 7.3 04:52:28 15° NNE 04:52:28 15° NNE 04:53:14 10° N visible
29 Apr 7.4 04:17:52 12° NE 04:17:52 12° NE 04:18:11 10° NNE visible
29 Apr 7.6 05:51:34 12° NNW 05:51:34 12° NNW 05:51:58 10° NNW visible
30 Apr 7.3 05:16:57 18° NNW 05:16:57 18° NNW 05:17:58 10° N visible
